Regional Weather Roundup
Issued by NWS Raleigh/Durham, NC

Home | Current Version | Previous Version | Text Only | Print | Product List | Glossary On
Versions: 1 2 3 4 5 6 7 8 9 10 11 12 13 14 15 16 17 18 19 20 21 22 23 24 25 26 27 28 29 30 31 32 33 34 35 36 37 38 39 40 41 42 43 44 45 46 47 48 49 50
000
ASUS42 KRAH 281410
RWRRAH
NORTH CAROLINA WEATHER ROUNDUP
NATIONAL WEATHER SERVICE RALEIGH NC
1000 AM EDT TUE MAR 28 2017

NOTE: "FAIR" INDICATES FEW OR NO CLOUDS BELOW 12,000 FEET WITH NO
SIGNIFICANT WEATHER AND/OR OBSTRUCTIONS TO VISIBILITY.

NCZ001-053-055-056-065-067-281500-
WESTERN NORTH CAROLINA

CITY           SKY/WX    TMP DP  RH WIND       PRES   REMARKS
ASHEVILLE      MOSUNNY   56  53  90 CALM      29.97S
JEFFERSON      CLOUDY    57  49  76 W15       29.97R
MORGANTON      MOSUNNY   61  58  89 S3        29.99R
HICKORY        PTSUNNY   60  57  89 VRB3      29.94R
RUTHERFORDTON  PTSUNNY   62  60  93 CALM      29.95S
MOUNT AIRY     CLOUDY    60  58  95 CALM      29.95S
BOONE          SUNNY     56  49  78 W9        29.98R
$$

NCZ021-022-025-041-071-084-088-281500-
CENTRAL NORTH CAROLINA

CITY           SKY/WX    TMP DP  RH WIND       PRES   REMARKS
CHARLOTTE      MOSUNNY   66  60  81 SW12      29.95S
GREENSBORO     CLOUDY    62  59  90 W12       29.93S
WINSTON-SALEM  CLOUDY    60  55  83 SW8       29.95R
RALEIGH-DURHAM CLOUDY    63  59  87 SW8       29.94F
FORT BRAGG     MOSUNNY   63  62  95 S5        29.96R
FAYETTEVILLE   CLOUDY    65  61  87 S7        29.96F
BURLINGTON     MOSUNNY   65  59  81 SW7       29.92F
LAURINBURG     CLOUDY    65  61  87 SW10      29.97F
$$

NCZ011-015-027-028-043-044-047-080-103-281500-
NORTHEASTERN NORTH CAROLINA

CITY           SKY/WX    TMP DP  RH WIND       PRES   REMARKS
ROCKY MT-WILSO LGT RAIN  63  60  90 S9        29.95S
GREENVILLE     CLOUDY    68  59  73 SW9       29.99R
WASHINGTON     MOSUNNY   68  59  73 SW9G16    29.97F
ELIZABETH CITY PTSUNNY   67  59  75 S13       29.96F
MANTEO         MOSUNNY   66  58  76 SW10      29.98F
CAPE HATTERAS  CLOUDY    72  61  68 SW9       30.00S HAZE
$$

NCZ078-087-090-091-093-098-101-281500-
SOUTHEASTERN NORTH CAROLINA

CITY           SKY/WX    TMP DP  RH WIND       PRES   REMARKS
LUMBERTON      CLOUDY    64  63  96 S7        29.97S
GOLDSBORO      LGT RAIN  63  63 100 SW10      29.97R
KINSTON        PTSUNNY   68  57  68 SW9       29.99R
KENANSVILLE    LGT RAIN  63  61  94 W13       30.01R
NEW BERN       MOSUNNY   71  61  70 W15       30.00S
CHERRY POINT   PTSUNNY   73  61  65 SW16      30.00S
BEAUFORT       SUNNY     71  63  75 SW12      30.00S
JACKSONVILLE   CLOUDY    70  61  73 SW14G21   29.99R
WILMINGTON     PTSUNNY   71  59  65 SW13      30.00R
$$




USA.gov is the U.S. government's official web portal to all federal, state and local government web resources and services.